Temp
26 26 26 26 26 26 26 26 26 26 26 26 26 26 26 26 26 26 26 26 26 26 26 26 26 25 25 26 26 26 26 26 26 26 26 26 26 26 26 27 27 28
26 26 26 26 26 26 26 26 25 25 26 26 26 26 26 26 26 27 27 26 26 26 26 26 25 25 25 25 25 26 26 26 26 26 26 26 26 26 26 27 27 27
26 26 26 26 26 26 26 26 26 26 26 26 26 26 26 27 27 27 27 27 27 27 26 26 26 25 25 25 25 25 26 26 26 26 26 26 26 26 26 26 27 27
26 26 26 26 26 26 26 26 26 26 26 26 27 26 27 27 27 27 27 27 27 27 26 26 26 26 26 25 25 25 25 25 25 26 26 26 26 26 26 26 26 27
26 26 26 26 26 26 26 26 26 27 27 27 27 27 27 27 27 27 27 27 27 27 27 26 26 26 26 26 26 25 25 25 25 25 25 26 26 26 26 26 26 27
26 26 26 26 26 26 26 26 27 27 27 27 27 27 27 27 27 27 27 27 27 27 27 27 26 26 26 26 26 26 25 25 25 25 25 26 26 26 26 26 26 27
26 26 26 26 26 27 27 27 27 27 27 27 27 27 28 28 28 28 27 27 27 27 27 27 27 26 26 26 26 26 26 25 25 25 26 26 26 26 26 26 26 26
26 26 26 26 26 26 26 27 27 27 28 28 28 28 28 28 28 28 28 27 27 27 27 27 27 27 27 26 26 26 26 26 26 26 26 26 26 26 26 26 26 26
26 26 26 26 26 25 25 26 25 26 26 27 27 27 28 28 28 28 28 28 27 27 27 27 27 27 27 27 27 27 26 26 26 26 26 26 26 26 26 26 26 26
26 26 26 26 26 26 26 25 25 25 25 25 25 25 26 26 27 28 28 28 28 27 27 27 27 27 27 27 27 27 27 27 26 26 26 26 26 26 26 26 26 26
26 26 26 26 26 26 26 25 25 25 25 25 25 25 25 26 26 27 27 28 28 28 28 28 27 27 28 28 27 27 27 27 27 26 27 27 26 26 26 26 26 26
26 26 26 26 26 26 25 25 25 25 25 25 25 26 26 26 26 25 25 26 26 27 28 28 28 28 28 28 28 28 27 27 27 27 27 27 27 27 26 26 26 26
26 26 26 26 26 26 25 25 25 25 25 25 25 26 25 25 25 25 25 25 25 25 26 28 28 28 28 28 28 28 28 27 27 27 27 27 27 26 25 24 24 25
25 25 26 25 25 25 25 25 25 25 25 25 26 26 26 26 25 26 26 25 24 24 24 26 28 28 27 28 28 27 27 27 27 27 27 27 26 26 25 24 24 24
24 24 24 24 24 24 24 24 25 25 25 25 26 26 26 26 25 26 26 26 25 24 23 23 26 28 27 27 27 27 27 27 27 27 27 26 26 26 26 25 25 25
23 23 23 23 23 23 24 24 24 24 24 25 25 25 25 25 24 25 26 26 26 26 24 22 24 27 27 27 27 27 27 27 26 26 26 26 26 26 26 26 26 26
22 22 22 22 22 22 23 23 23 24 24 24 24 24 24 24 24 24 25 25 26 26 25 23 23 26 27 27 27 27 26 26 26 26 26 26 26 25 25 25 26 25
21 21 21 21 21 21 21 22 22 23 23 23 23 23 23 23 24 23 24 24 25 25 25 25 25 26 27 26 26 26 26 26 26 26 26 26 26 26 25 25 25 25
21 21 21 21 20 20 20 21 21 22 22 22 22 23 23 22 23 23 23 23 24 24 25 25 25 25 26 26 26 26 25 25 25 25 25 25 25 26 25 25 25 25
21 21 20 20 20 20 20 20 21 21 21 22 22 22 22 22 22 23 23 23 23 22 22 23 24 24 25 25 25 25 25 25 25 25 25 25 25 25 25 25 25 25
20 20 20 20 20 20 20 20 20 20 20 21 21 21 21 21 21 22 22 22 22 22 22 23 23 24 24 25 25 25 25 24 24 24 24 24 24 24 24 24 24 24
19 19 19 19 19 19 19 19 19 20 20 20 20 20 20 21 21 21 21 21 21 21 22 22 21 22 23 23 24 24 24 24 24 23 24 24 24 23 23 23 23 23
18 18 18 18 18 18 19 19 19 19 19 19 19 20 20 20 21 21 21 21 21 21 21 20 20 21 21 22 22 23 23 24 23 23 23 23 23 23 23 23 23 22
18 18 18 18 18 18 18 18 19 19 18 19 19 19 19 20 20 20 20 20 20 19 19 19 18 18 19 20 21 22 22 22 22 22 23 23 22 22 22 22 22 21
18 18 18 18 18 18 18 18 19 18 18 18 18 19 19 19 19 18 18 18 18 18 18 18 17 17 17 18 19 20 21 21 21 22 21 21 21 21 21 21 20 20
18 18 17 18 17 17 18 18 18 18 18 17 17 18 18 18 18 17 16 16 17 17 17 17 17 17 17 17 17 18 19 19 20 21 20 20 20 20 20 20 20 19
Height
825 826 827 828 829 831 832 834 835 836 837 837 838 839 839 840 841 841 842 842 843 844 845 845 846 846 846 846 847 847 847 847 847 848 848 848 848 848 848 848 847 847
825 826 827 828 829 830 831 833 834 835 836 837 837 838 839 839 840 840 841 841 842 843 843 844 844 845 845 845 846 846 846 846 846 847 847 847 847 847 847 847 847 846
824 825 826 827 828 829 831 832 833 834 835 836 836 837 838 838 839 839 840 840 841 841 842 843 843 843 844 844 845 845 845 846 846 846 846 846 846 846 846 846 846 846
823 824 826 827 828 829 830 831 832 832 833 834 835 836 836 837 837 838 839 839 839 840 840 841 842 842 843 843 844 844 844 845 845 845 845 845 845 845 845 845 845 845
822 823 824 826 827 828 830 830 831 831 832 833 833 834 835 835 835 836 837 838 838 839 839 839 840 840 841 842 842 843 843 844 844 845 845 844 844 844 844 844 844 844
821 822 823 825 825 827 828 828 830 830 830 831 832 832 833 833 834 834 834 835 836 837 838 838 838 839 839 840 840 841 841 842 843 843 844 843 843 843 843 843 843 843
819 821 822 823 824 825 826 827 828 829 829 830 830 831 832 832 832 832 832 833 833 834 835 836 836 837 838 838 839 839 839 840 841 842 842 842 842 842 842 842 842 841
818 819 820 821 822 823 824 825 826 827 828 829 829 830 830 830 831 831 832 832 832 832 833 834 834 835 836 836 836 837 838 838 839 840 840 840 840 841 840 841 840 840
816 816 816 817 818 819 821 822 823 825 826 827 828 829 829 829 830 830 830 830 830 831 831 831 832 832 833 834 834 835 835 836 837 837 838 838 838 838 838 838 839 838
813 813 814 815 816 817 818 820 822 823 824 825 825 826 827 828 828 828 828 828 829 829 829 829 830 830 831 831 832 833 833 834 835 835 836 836 836 836 836 836 836 836
811 812 813 814 815 816 817 818 820 821 822 823 823 823 824 824 825 826 827 827 826 826 827 827 828 828 828 829 830 831 831 832 833 834 834 834 834 834 834 834 834 834
809 809 811 812 813 814 815 817 818 819 820 820 820 820 821 821 822 825 827 827 826 824 824 824 825 826 826 827 828 828 829 830 831 831 831 831 832 832 831 832 832 832
807 808 809 810 811 812 814 814 815 816 817 819 819 819 820 820 820 822 824 825 825 824 823 821 821 823 823 824 825 826 827 828 828 829 829 829 829 829 830 831 832 831
806 807 808 809 810 811 812 812 812 813 814 816 817 817 818 818 818 819 820 821 822 823 823 821 819 820 821 821 822 824 824 825 826 827 827 827 827 827 828 830 830 829
805 805 806 808 809 810 811 811 810 811 811 813 814 814 815 816 816 817 817 817 817 818 821 822 819 817 818 819 820 821 822 823 824 824 825 825 825 825 826 827 827 827
804 805 805 807 808 809 809 808 809 809 809 810 810 811 812 814 815 815 814 814 813 812 817 822 821 816 815 817 818 819 820 821 821 822 822 822 823 823 824 824 825 826
805 805 805 806 806 807 807 806 807 808 808 809 808 808 810 810 812 814 813 812 811 809 813 818 820 816 814 815 816 817 818 818 819 819 819 820 820 821 822 822 823 824
805 805 805 805 805 805 805 805 806 807 807 808 807 807 808 808 810 812 812 812 811 810 811 813 815 815 813 814 814 815 816 816 817 817 817 817 818 819 820 820 821 822
804 804 804 805 804 805 805 805 805 806 806 807 807 807 807 808 809 809 810 811 811 811 811 811 811 812 812 812 813 813 814 814 814 815 815 816 816 817 818 819 819 820
802 802 804 805 805 805 805 805 805 805 805 806 806 806 806 806 807 807 807 809 809 810 811 811 809 809 809 810 811 811 812 812 813 814 814 814 815 815 816 817 817 818
803 803 804 806 806 805 805 805 805 804 805 805 805 805 805 805 805 805 806 807 808 808 808 808 807 807 807 808 808 809 810 811 811 812 812 813 813 814 814 815 815 816
806 806 806 807 807 805 805 805 805 804 804 804 804 804 804 804 804 804 805 806 807 806 805 805 806 806 805 805 806 806 808 808 809 810 810 811 812 812 813 813 813 814
808 808 808 808 807 806 805 806 805 805 804 804 803 803 803 803 803 803 803 804 805 805 804 805 806 806 805 804 803 804 805 806 807 808 809 810 810 811 811 811 811 812
809 808 809 808 807 806 806 806 806 806 805 805 804 803 804 804 804 803 802 802 803 804 804 805 806 805 804 803 802 802 803 804 805 806 807 808 809 810 810 810 811 811
812 810 810 810 809 807 807 807 807 807 807 807 806 805 805 806 805 804 804 803 803 804 805 806 806 806 805 803 802 801 802 802 803 804 805 806 807 808 809 809 810 810
814 813 812 810 809 809 808 808 808 808 808 808 808 808 807 807 807 806 806 806 805 805 805 807 807 807 805 804 803 801 801 802 802 802 803 805 805 807 808 809 809 809
Wind_Speed
18 22 20 19 23 22 19 20 19 18 17 18 20 19 18 18 17 16 17 17 15 14 14 14 13 13 14 13 12 11 10 10 9 8 6 6 7 7 7 7 7 7
18 20 20 18 20 20 19 19 20 19 18 18 19 19 18 17 17 17 17 18 17 15 15 15 15 15 14 14 13 12 12 12 12 11 8 7 8 8 8 8 7 7
19 19 19 18 18 18 18 19 19 19 19 19 19 18 18 18 18 17 17 18 18 17 16 15 16 16 15 13 12 11 12 12 13 13 11 9 9 9 9 9 8 8
20 19 19 19 18 17 17 18 18 18 19 19 20 19 19 19 19 18 17 16 17 18 17 16 15 15 14 13 13 13 12 11 11 11 12 11 11 11 11 10 9 9
21 19 18 18 18 17 18 18 18 20 20 20 20 19 18 20 20 20 20 17 17 18 17 16 17 16 14 13 14 14 14 13 12 11 12 13 12 12 13 12 11 10
20 20 18 18 17 18 19 19 19 19 20 21 20 19 18 19 19 21 23 21 19 19 17 16 17 17 16 15 15 15 15 15 14 13 14 15 14 13 12 11 11 11
19 19 19 18 17 18 19 20 19 19 19 20 19 19 19 19 18 19 21 21 20 21 20 18 18 17 17 17 17 16 16 15 14 14 16 16 16 15 12 12 13 12
19 19 19 18 17 15 14 15 15 16 18 18 18 19 20 19 19 18 18 20 21 21 20 18 18 19 19 19 18 18 18 17 16 15 16 15 16 16 14 13 15 15
15 17 18 19 18 14 12 12 11 10 12 13 14 16 18 20 21 21 19 19 20 21 20 19 18 19 21 22 20 20 20 20 18 16 15 15 16 16 16 15 14 14
10 15 18 20 21 18 15 13 12 11 10 12 13 11 13 15 18 21 23 23 21 20 20 20 19 19 21 23 23 21 20 20 19 17 15 16 17 18 18 16 14 14
11 14 16 17 19 19 18 15 13 11 10 12 14 15 16 15 14 16 19 22 24 24 22 21 20 18 18 21 23 22 20 18 18 18 16 16 16 17 18 17 16 15
13 14 14 13 14 16 17 15 12 11 10 11 12 14 15 14 13 16 17 18 19 23 25 23 22 20 18 16 18 20 19 18 17 18 19 18 18 18 18 18 16 14
13 12 13 12 12 12 13 13 12 13 13 13 13 11 8 7 11 15 17 17 17 20 23 23 22 22 21 19 18 17 17 17 17 18 19 19 19 18 16 15 14 14
9 8 10 10 10 10 11 13 14 14 14 14 16 16 12 9 11 13 16 17 15 19 22 21 19 19 20 21 20 19 17 17 17 16 14 14 14 14 14 15 16 15
5 5 7 8 8 8 10 12 14 14 14 15 16 18 18 15 12 12 17 20 17 16 20 21 20 19 18 18 18 18 18 17 18 17 15 13 11 12 14 16 16 16
2 2 3 5 5 6 7 9 11 13 13 13 13 15 16 14 10 9 13 16 16 13 15 20 21 20 18 18 17 17 18 17 17 18 18 17 13 12 13 14 15 15
3 2 1 2 3 4 5 6 7 9 11 11 11 11 11 10 7 6 7 10 11 10 9 14 18 18 17 18 18 17 18 17 15 16 19 19 16 12 11 11 12 13
3 1 0 1 2 2 3 5 6 7 8 9 9 9 8 8 6 4 4 6 8 10 10 12 15 15 14 16 17 17 17 15 13 14 16 18 18 15 13 12 12 13
3 2 1 2 3 2 2 3 4 5 6 6 7 8 9 8 6 4 5 6 6 7 8 8 10 10 10 12 14 15 15 13 13 13 14 16 18 17 15 13 12 13
3 1 2 2 3 2 2 2 3 3 3 3 5 6 7 7 7 6 7 7 5 4 4 5 7 8 8 9 11 12 13 12 13 14 13 13 15 16 15 13 12 13
5 4 4 2 2 1 1 1 1 1 3 3 3 4 5 5 6 6 6 5 5 5 7 8 8 8 9 10 11 12 12 12 13 14 14 12 12 12 12 10 9 11
11 9 8 6 5 6 7 7 6 5 6 6 6 6 6 6 6 7 6 6 6 7 9 10 9 9 10 11 12 12 12 12 11 12 13 12 10 9 8 8 9 10
15 14 13 12 12 13 13 12 11 12 11 10 11 11 10 9 8 7 6 6 7 8 9 9 9 9 10 10 10 11 11 11 10 10 11 11 10 9 9 9 10 10
17 17 17 16 16 16 15 14 15 16 15 15 17 17 17 16 13 10 6 2 1 1 2 5 4 4 6 8 9 10 9 10 10 10 10 10 9 8 7 7 6 5
17 17 17 18 19 19 18 17 16 16 17 18 20 20 21 20 19 18 16 13 13 13 9 5 4 5 3 3 5 7 7 8 10 9 8 7 4 2 2 2 2 2
16 17 18 19 20 21 21 20 18 18 18 19 19 19 20 21 20 21 21 20 18 16 14 11 9 9 9 9 5 2 4 6 8 9 8 7 7 6 6 5 3 2
Wind_Direction
194 192 195 192 191 195 196 198 200 200 202 202 203 204 202 207 213 209 208 211 211 206 205 213 216 215 221 220 214 215 212 204 207 212 216 224 236 246 255 265 274 283
201 198 200 196 192 196 200 203 206 207 208 209 211 210 207 209 211 210 213 214 214 213 209 213 218 221 226 224 218 223 224 218 218 217 216 227 243 252 256 264 271 277
202 203 206 206 200 199 203 205 206 208 212 214 214 213 209 209 211 213 215 216 218 220 216 216 222 226 230 227 221 231 236 230 229 227 222 229 248 256 254 258 262 267
201 203 207 210 210 208 208 208 209 210 214 216 216 217 216 210 210 215 217 218 220 219 217 221 225 228 233 230 223 230 238 236 237 238 234 234 242 248 249 251 255 262
202 203 206 209 212 214 213 213 215 216 217 218 218 223 224 216 211 213 215 216 217 217 220 223 224 226 232 233 227 229 233 235 238 244 245 241 241 247 249 251 258 263
205 205 208 209 211 215 217 216 219 225 224 220 221 225 226 223 222 216 212 214 215 216 222 225 225 226 227 230 233 233 235 237 238 241 247 249 247 249 251 254 262 269
209 210 211 214 217 220 222 218 217 228 229 220 221 228 227 228 233 224 214 215 215 215 219 224 228 228 224 226 232 235 238 241 240 241 248 255 252 248 249 252 257 267
208 209 211 215 222 229 235 229 224 232 233 224 224 229 228 227 232 232 226 222 216 214 216 219 225 230 227 225 229 233 236 237 238 241 249 256 249 243 247 253 258 267
205 202 205 211 217 227 240 244 250 256 247 242 242 239 237 234 231 231 231 228 223 219 218 217 219 226 229 228 227 230 233 235 236 238 246 252 245 242 249 255 260 266
211 205 208 215 219 223 227 234 250 260 254 257 264 265 260 252 244 236 228 225 226 226 226 223 220 224 230 230 228 230 233 236 235 232 239 250 249 248 250 251 256 259
213 209 211 219 222 221 221 223 233 241 245 254 259 262 259 255 263 262 243 230 226 225 227 229 227 229 234 232 227 227 232 235 236 236 242 251 254 254 252 247 246 248
208 206 207 217 226 227 223 221 225 231 237 240 244 253 256 252 266 278 272 258 242 230 225 226 228 231 237 238 230 227 230 234 238 244 248 251 252 253 253 250 247 248
208 207 211 218 233 239 231 228 233 242 246 240 232 235 248 263 267 265 261 262 265 255 238 226 224 228 231 234 237 236 235 238 242 247 249 248 248 251 256 262 266 266
215 216 220 224 233 240 238 237 241 246 249 244 233 228 231 250 264 255 241 239 253 268 260 239 222 223 227 227 232 236 236 237 242 248 253 252 251 255 258 262 265 263
218 219 225 228 236 243 244 245 248 252 254 252 245 237 236 246 255 245 232 228 231 253 271 262 234 219 224 225 225 230 233 235 240 246 254 262 269 271 267 263 260 256
141 177 213 224 237 246 245 245 251 255 257 259 253 241 238 243 246 233 225 229 232 237 265 273 250 225 222 227 228 233 236 238 243 248 252 257 266 275 270 263 259 256
115 115 148 216 235 244 250 248 249 254 255 254 250 244 240 239 240 239 228 230 234 226 236 260 252 232 225 231 235 239 241 242 247 251 251 249 250 255 256 254 252 252
110 129 201 296 281 252 254 249 240 245 249 250 251 250 247 241 236 241 237 226 224 223 225 237 241 238 237 240 243 245 244 245 248 249 247 243 241 243 247 247 244 241
27 11 34 347 324 315 299 270 251 248 248 254 259 256 253 255 254 246 245 242 231 225 230 230 226 233 243 245 246 246 243 242 245 245 244 243 241 242 245 246 245 244
3 22 55 357 321 319 314 289 279 281 280 278 272 267 266 269 272 268 261 263 265 264 268 253 231 231 240 239 238 239 238 239 240 239 241 244 242 240 243 249 254 253
65 85 76 28 353 24 65 59 22 0 356 351 338 322 318 312 300 295 296 303 306 284 257 253 247 237 234 235 235 234 235 233 231 232 236 240 239 240 247 255 256 251
68 74 74 70 70 69 69 64 54 46 37 30 31 23 0 342 325 311 307 313 313 289 263 257 255 239 225 225 226 228 233 231 222 218 220 221 225 232 237 235 232 234
70 69 67 67 67 65 64 63 61 58 55 55 55 48 35 20 3 339 309 286 288 292 274 253 246 241 230 222 217 217 222 222 212 205 203 206 212 215 215 218 221 230
65 67 65 64 65 66 65 63 64 66 64 64 65 62 57 50 42 35 23 0 94 52 219 204 210 239 233 224 219 213 207 200 195 195 196 200 208 213 220 225 219 228
61 67 69 67 65 67 68 67 71 76 74 70 68 69 70 68 67 67 69 77 88 84 81 80 43 6 340 280 230 205 192 189 187 183 175 171 171 171 190 197 174 173
62 67 70 70 68 68 69 71 78 83 81 76 73 73 75 75 73 74 74 75 80 78 71 62 46 26 18 12 10 111 142 159 168 163 145 120 106 106 114 116 109 105